Flag for Germany Weather past 2 weeks in Neuburg an der Donau, Bavaria, Germany

Now
66 °F

Mild.


Feels Like: 66 °F
Forecast: 61 / 87 °F
Wind: 1 mph from Northeast

Location: Neuburg / Donau

Current Time: Jul 2, 2015 at 2:10:59 AM

Latest Report: Jul 2, 2015 at 1:20 AM


Visibility: N/A

Pressure: 30.15 "Hg

Humidity: 78%

Dew point: 59 °F

Location of Neuburg an der DonauLocation

Historic Weather in Neuburg an der Donau — Graph

°F

Neuburg an der Donau temperature yesterday

Maximum temperature yesterday: 86 °F (at 5:20 PM)
Minimum temperature yesterday: 59 °F (at 5:20 AM)
Average temperature yesterday: 74 °F

Past Weeks' High & Low Weather Summary

 TemperatureHumidityPressure
High86 °F (Jul 1, 5:20 PM)100% (Jun 18, 7:20 PM)30.24 "Hg (Jun 18, 7:20 PM)
Low45 °F (Jun 25, 4:20 AM)32% (Jun 30, 3:20 PM)29.74 "Hg (Jun 22, 10:20 PM)
Average61 °F72%30.10 "Hg
* Reported Jun 17 12:20 AM — Jul 2 12:20 AM, Neuburg an der Donau, Weather by CustomWeather, © 2015

Note: Actual official high and low records may vary slightly from our data, if they occured in-between our weather recording intervals... More about our weather records

Advertising

Neuburg an der Donau weather history for previous 24 hours

 ConditionsComfort  
Time TempWeatherWind HumidityBarometerVisibility
12:20 AM
Thu, Jul 2
66 °FMild.2 mph78%30.15 "HgN/A
11:20 PM
Wed, Jul 1
68 °FMild.1 mph73%30.15 "HgN/A
10:20 PM73 °FMild.2 mph61%30.15 "HgN/A
9:20 PM77 °FWarm.5 mph54%30.12 "HgN/A
8:20 PM81 °FWarm.7 mph48%30.12 "HgN/A
7:20 PM82 °FWarm.7 mph45%30.12 "HgN/A
6:20 PM84 °FPleasantly warm.7 mph40%30.12 "HgN/A
5:20 PM86 °FPleasantly warm.8 mph38%30.12 "HgN/A
4:20 PM84 °FPleasantly warm.7 mph40%30.12 "HgN/A
3:20 PM84 °FPassing clouds.7 mph40%30.12 "HgN/A
2:20 PM84 °FPassing clouds.6 mph40%30.12 "HgN/A
1:20 PM82 °FPassing clouds.8 mph45%30.15 "HgN/A
12:20 PM81 °FPassing clouds.8 mph48%30.15 "HgN/A
11:20 AM79 °FPassing clouds.5 mph54%30.15 "HgN/A
10:20 AM75 °FMild.7 mph57%30.15 "HgN/A
9:20 AM72 °FMild.5 mph65%30.15 "HgN/A
8:20 AM68 °FMild.3 mph73%30.15 "HgN/A
7:20 AM64 °FMild.1 mph73%30.15 "HgN/A
6:20 AM61 °FCool.2 mph83%30.15 "HgN/A
5:20 AM59 °FCool.1 mph82%30.12 "HgN/A
4:20 AM61 °FCool.2 mph77%30.12 "HgN/A
3:20 AM63 °FMild.2 mph73%30.12 "HgN/A
2:20 AM64 °FMild.2 mph64%30.12 "HgN/A
Weather by CustomWeather, © 2015

See weather overviewHow to use our weather pages